Date,TemperatureHighF,TemperatureAvgF,TemperatureLowF,DewpointHighF,DewpointAvgF,DewpointLowF,HumidityHigh,HumidityAvg,HumidityLow,PressureMaxIn,PressureMinIn,WindSpeedMaxMPH,WindSpeedAvgMPH,GustSpeedMaxMPH,PrecipitationSumIn
2013-1-1,54,53,52,53,50,48,95,89,85,30.11,29.92,24,9,24,0.00
2013-1-2,54,47,42,53,45,37,96,92,83,30.13,29.88,22,7,22,0.23
2013-1-3,43,42,38,39,37,35,90,83,78,30.21,30.09,18,6,18,0.07
2013-1-4,50,42,35,37,32,27,89,69,43,30.26,30.15,19,4,19,0.00
2013-1-5,50,42,35,40,31,25,80,64,43,30.34,30.22,12,3,12,0.00
2013-1-6,50,47,43,46,41,36,92,80,67,30.24,30.04,10,1,10,0.04
2013-1-7,51,46,41,44,38,35,92,74,58,30.40,30.08,17,6,19,0.00
2013-1-8,60,51,42,52,46,37,92,83,72,30.41,30.31,15,4,15,0.00
2013-1-9,69,57,50,58,52,47,93,86,67,30.39,30.31,9,1,9,0.00
2013-1-10,59,54,48,54,45,32,95,73,37,30.48,30.36,21,5,21,0.00
2013-1-11,61,56,48,60,54,43,97,93,82,30.40,30.13,15,3,15,0.11
2013-1-12,60,56,53,59,55,52,98,97,96,30.16,30.08,6,0,6,0.01
2013-1-13,60,58,54,60,57,53,99,97,95,30.15,30.08,13,2,13,0.01
2013-1-14,63,59,56,61,58,55,97,96,92,30.18,30.08,14,4,14,0.01
2013-1-15,62,56,53,60,55,52,98,96,89,30.17,30.05,16,4,16,0.09
2013-1-16,62,59,56,61,58,55,98,96,93,30.05,29.95,29,7,29,0.01
2013-1-17,64,54,43,62,53,41,99,96,91,29.98,29.76,31,7,31,0.41
2013-1-18,47,43,38,42,35,30,93,76,51,30.49,29.88,30,8,30,0.00
2013-1-19,57,48,38,50,41,31,91,76,56,30.45,30.14,13,3,13,0.00
2013-1-20,57,53,50,52,48,41,93,84,65,30.14,29.96,22,8,22,0.00
2013-1-21,58,53,46,51,45,36,85,75,65,30.03,29.84,24,7,26,0.00
2013-1-22,54,44,39,44,24,13,69,45,30,30.12,29.89,29,7,29,0.00
2013-1-24,31,29,28,13,10,9,52,45,39,30.45,30.36,27,12,27,0.00
2013-1-25,38,32,27,33,23,11,94,70,48,30.45,30.04,19,5,19,0.16
2013-1-26,40,34,30,35,31,27,93,87,81,30.33,30.06,17,6,17,0.00
2013-1-27,42,36,30,32,29,24,93,75,52,30.51,30.33,23,6,23,0.00
2013-1-28,55,44,36,53,40,30,96,87,76,30.46,30.22,14,4,14,0.01
2013-1-29,57,53,49,57,52,48,98,96,95,30.22,30.10,16,5,16,0.01
2013-1-30,63,59,54,60,57,54,98,94,88,30.11,29.61,37,12,37,0.01
2013-1-31,64,54,47,61,43,27,94,68,39,30.03,29.49,45,20,45,0.10